Location: Holyhead Bay
(53.3667°N, 4.6667°W)
Time: 18:55:24
(UTC+00:00)

SL-8 Rocket - Pass Details

Date: 24 November 2020
Orbit: 958 x 990 km, 82.9° (Epoch: 17 January)

Event Time Altitude Azimuth Distance (km) Brightness Sun altitude
Rises 17:47:03 0° 350° (N) 3,668 6.9 -13.8°
Reaches altitude 10° 17:49:37 10° 355° (N) 2,721 6.2 -14.2°
Maximum altitude 17:55:45 58° 74° (ENE) 1,129 4.0 -15.1°
Drops below altitude 10° 18:01:54 10° 153° (SSE) 2,725 6.2 -16.0°
Sets 18:04:28 0° 157° (SSE) 3,673 6.9 -16.4°
